,,Stat6,,Stat2,,Stat8,,Stat9,,Stat10,,Wind1,,Wind1,
time,status,PA1M_AVG,status,PR1M_SUM,status,RH1M_AVG,status,SR1M_AVG,status,TA1M_AVG,status,W1dAve1m,status,W1sAve1m,
2006-03-29, 00:00:00,VALID,918.535,VALID,0,VALID,100,VALID,-0.0169808,VALID,18.9667,VALID,67,VALID,0,
2006-03-29, 00:01:00,VALID,918.53,VALID,0,VALID,100,VALID,0,VALID,18.6265,VALID,67,VALID,0,
2006-03-29, 00:02:00,VALID,918.501,VALID,0,VALID,100,VALID,-0.0169808,VALID,20.093,VALID,67,VALID,0,
2006-03-29, 00:03:00,VALID,918.482,VALID,0,VALID,100,VALID,-0.101885,VALID,19.7808,VALID,67,VALID,0,
2006-03-29, 00:04:00,VALID,918.459,VALID,0,VALID,100,VALID,-0.101885,VALID,19.6235,VALID,67,VALID,0,
2006-03-29, 00:05:00,VALID,918.447,VALID,0,VALID,100,VALID,-0.0849042,VALID,19.5048,VALID,67,VALID,0,
2006-03-29, 00:06:00,VALID,918.436,VALID,0,VALID,100,VALID,-0.118866,VALID,20.7259,VALID,67,VALID,0,
2006-03-29, 00:07:00,VALID,918.416,VALID,0,VALID,100,VALID,0.0169808,VALID,19.4158,VALID,67,VALID,0,
2006-03-29, 00:08:00,VALID,918.396,VALID,0,VALID,100,VALID,-0.0169808,VALID,19.7249,VALID,67,VALID,0,
2006-03-29, 00:09:00,VALID,918.397,VALID,0,VALID,100,VALID,-0.0169808,VALID,20.3664,VALID,67,VALID,0,
2006-03-29, 00:10:00,VALID,918.384,VALID,0,VALID,100,VALID,-0.0849042,VALID,19.4342,VALID,67,VALID,0,
2006-03-29, 00:11:00,VALID,918.395,VALID,0,VALID,100,VALID,-0.0169808,VALID,19.3454,VALID,67,VALID,0.0600142,
2006-03-29, 00:12:00,VALID,918.398,VALID,0,VALID,100,VALID,-0.118866,VALID,19.6565,VALID,67,VALID,0,
2006-03-29, 00:13:00,VALID,918.402,VALID,0,VALID,100,VALID,-0.101885,VALID,20.6059,VALID,67,VALID,0.077381,
2006-03-29, 00:14:00,VALID,918.387,VALID,0,VALID,100,VALID,-0.101885,VALID,20.5882,VALID,67,VALID,0.20191,
2006-03-29, 00:15:00,VALID,918.376,VALID,0,VALID,100,VALID,-0.101885,VALID,20.6376,VALID,67,VALID,0.0467088,
2006-03-29, 00:16:00,VALID,918.365,VALID,0,VALID,100,VALID,-0.118866,VALID,21.3664,VALID,67,VALID,0.0178052,
2006-03-29, 00:17:00,VALID,918.387,VALID,0,VALID,100,VALID,-0.118866,VALID,19.7653,VALID,67,VALID,0,
2006-03-29, 00:18:00,VALID,918.386,VALID,0,VALID,100,VALID,-0.0849042,VALID,20.6128,VALID,67,VALID,0,
2006-03-29, 00:19:00,VALID,918.386,VALID,0,VALID,100,VALID,-0.101885,VALID,19.8964,VALID,67,VALID,0,
2006-03-29, 00:20:00,VALID,918.389,VALID,0,VALID,100,VALID,-0.101885,VALID,20.4141,VALID,67,VALID,0.00685976,
2006-03-29, 00:21:00,VALID,918.397,VALID,0,VALID,100,VALID,-0.101885,VALID,20.7615,VALID,67,VALID,0.0932049,
2006-03-29, 00:22:00,VALID,918.417,VALID,0,VALID,100,VALID,-0.101885,VALID,19.6096,VALID,67,VALID,0.175595,
2006-03-29, 00:23:00,VALID,918.423,VALID,0,VALID,100,VALID,-0.101885,VALID,20.5184,VALID,67,VALID,0.0829613,
2006-03-29, 00:24:00,VALID,918.434,VALID,0,VALID,100,VALID,-0.0509425,VALID,19.9036,VALID,67,VALID,0.0987043,
2006-03-29, 00:25:00,VALID,918.456,VALID,0,VALID,100,VALID,-0.101885,VALID,19.5637,VALID,67,VALID,0,
2006-03-29, 00:26:00,VALID,918.468,VALID,0,VALID,100,VALID,-0.118866,VALID,21.6648,VALID,67,VALID,0.000868056,
2006-03-29, 00:27:00,VALID,918.482,VALID,0,VALID,100,VALID,-0.118866,VALID,19.4382,VALID,67,VALID,0,
2006-03-29, 00:28:00,VALID,918.478,VALID,0,VALID,100,VALID,-0.101885,VALID,19.7899,VALID,67,VALID,0,
2006-03-29, 00:29:00,VALID,918.47,VALID,0,VALID,100,VALID,-0.0849042,VALID,19.835,VALID,67,VALID,0,
2006-03-29, 00:30:00,VALID,918.472,VALID,0,VALID,100,VALID,-0.0849042,VALID,20.0137,VALID,67,VALID,0,
2006-03-29, 00:31:00,VALID,918.474,VALID,0,VALID,100,VALID,-0.101885,VALID,20.4622,VALID,67,VALID,0.22154,
2006-03-29, 00:32:00,VALID,918.482,VALID,0,VALID,100,VALID,-0.0849042,VALID,19.6022,VALID,67,VALID,0.0138081,
2006-03-29, 00:33:00,VALID,918.485,VALID,0,VALID,100,VALID,0.0169808,VALID,20.2297,VALID,67,VALID,0.0998884,
2006-03-29, 00:34:00,VALID,918.484,VALID,0,VALID,100,VALID,-0.0169808,VALID,19.6288,VALID,67,VALID,0.0731707,
2006-03-29, 00:35:00,VALID,918.454,VALID,0,VALID,100,VALID,-0.101885,VALID,20.0454,VALID,67,VALID,0,
2006-03-29, 00:36:00,VALID,918.432,VALID,0,VALID,100,VALID,-0.118866,VALID,19.4463,VALID,67,VALID,0,
2006-03-29, 00:37:00,VALID,918.399,VALID,0,VALID,100,VALID,-0.118866,VALID,20.006,VALID,67,VALID,0,
2006-03-29, 00:38:00,VALID,918.389,VALID,0,VALID,100,VALID,-0.101885,VALID,20.6353,VALID,67,VALID,0,
2006-03-29, 00:39:00,VALID,918.392,VALID,0,VALID,100,VALID,-0.0509425,VALID,20.405,VALID,67,VALID,0.171165,
2006-03-29, 00:40:00,VALID,918.408,VALID,0,VALID,100,VALID,0,VALID,20.2979,VALID,67,VALID,0.129616,
2006-03-29, 00:41:00,VALID,918.417,VALID,0,VALID,100,VALID,0,VALID,17.7349,VALID,67,VALID,0,
2006-03-29, 00:42:00,VALID,918.378,VALID,0,VALID,100,VALID,0,VALID,21.0314,VALID,61,VALID,0.175877,
2006-03-29, 00:43:00,VALID,918.364,VALID,0,VALID,100,VALID,-0.0509425,VALID,20.0447,VALID,59,VALID,0.00726744,
2006-03-29, 00:44:00,VALID,918.334,VALID,0,VALID,100,VALID,-0.101885,VALID,19.4167,VALID,59,VALID,0,
2006-03-29, 00:45:00,VALID,918.323,VALID,0,VALID,100,VALID,-0.101885,VALID,20.1386,VALID,59,VALID,0,
2006-03-29, 00:46:00,VALID,918.318,VALID,0,VALID,100,VALID,-0.0849042,VALID,19.5385,VALID,59,VALID,0,
2006-03-29, 00:47:00,VALID,918.31,VALID,0,VALID,100,VALID,-0.0849042,VALID,19.3044,VALID,59,VALID,0,
2006-03-29, 00:48:00,VALID,918.306,VALID,0,VALID,100,VALID,-0.0679233,VALID,19.4704,VALID,59,VALID,0,
2006-03-29, 00:49:00,VALID,918.313,VALID,0,VALID,100,VALID,-0.101885,VALID,19.8246,VALID,59,VALID,0,
2006-03-29, 00:50:00,VALID,918.305,VALID,0,VALID,100,VALID,-0.101885,VALID,20.7667,VALID,59,VALID,0,
2006-03-29, 00:51:00,VALID,918.312,VALID,0,VALID,100,VALID,-0.101885,VALID,19.4334,VALID,59,VALID,0,
2006-03-29, 00:52:00,VALID,918.315,VALID,0,VALID,100,VALID,-0.101885,VALID,19.6039,VALID,59,VALID,0,
2006-03-29, 00:53:00,VALID,918.317,VALID,0,VALID,100,VALID,-0.0679233,VALID,18.0173,VALID,59,VALID,0,
2006-03-29, 00:54:00,VALID,918.327,VALID,0,VALID,100,VALID,-0.0849042,VALID,20.389,VALID,59,VALID,0,
2006-03-29, 00:55:00,VALID,918.325,VALID,0,VALID,100,VALID,-0.0849042,VALID,20.563,VALID,59,VALID,0,
2006-03-29, 00:56:00,VALID,918.339,VALID,0,VALID,100,VALID,-0.0849042,VALID,20.1169,VALID,59,VALID,0.0426136,
2006-03-29, 00:57:00,VALID,918.342,VALID,0,VALID,100,VALID,0.0169808,VALID,20.8374,VALID,59,VALID,0,
2006-03-29, 00:58:00,VALID,918.334,VALID,0,VALID,100,VALID,0,VALID,21.1972,VALID,59,VALID,0,
2006-03-29, 00:59:00,VALID,918.308,VALID,0,VALID,100,VALID,-0.0169808,VALID,19.5597,VALID,59,VALID,0,
2006-03-29, 01:00:00,VALID,918.305,VALID,0,VALID,100,VALID,-0.0509425,VALID,20.0357,VALID,59,VALID,0,
2006-03-29, 01:01:00,VALID,918.307,VALID,0,VALID,100,VALID,-0.101885,VALID,19.7159,VALID,59,VALID,0,
2006-03-29, 01:02:00,VALID,918.301,VALID,0,VALID,100,VALID,-0.101885,VALID,20.4492,VALID,59,VALID,0,
2006-03-29, 01:03:00,VALID,918.294,VALID,0,VALID,100,VALID,-0.101885,VALID,20.7303,VALID,59,VALID,0,
2006-03-29, 01:04:00,VALID,918.28,VALID,0,VALID,100,VALID,-0.0849042,VALID,20.0692,VALID,59,VALID,0,
2006-03-29, 01:05:00,VALID,918.256,VALID,0,VALID,100,VALID,-0.0849042,VALID,21.4177,VALID,59,VALID,0,
2006-03-29, 01:06:00,VALID,918.249,VALID,0,VALID,100,VALID,-0.101885,VALID,20.3268,VALID,59,VALID,0,
2006-03-29, 01:07:00,VALID,918.235,VALID,0,VALID,100,VALID,-0.118866,VALID,19.9449,VALID,59,VALID,0,
2006-03-29, 01:08:00,VALID,918.232,VALID,0,VALID,100,VALID,-0.101885,VALID,20.7531,VALID,59,VALID,0,
2006-03-29, 01:09:00,VALID,918.217,VALID,0,VALID,100,VALID,-0.0849042,VALID,19.8126,VALID,59,VALID,0.241279,
2006-03-29, 01:10:00,VALID,918.202,VALID,0,VALID,100,VALID,-0.101885,VALID,19.7685,VALID,56,VALID,0.453852,
2006-03-29, 01:11:00,VALID,918.174,VALID,0,VALID,100,VALID,-0.0849042,VALID,19.4047,VALID,41,VALID,0.620908,
2006-03-29, 01:12:00,VALID,918.155,VALID,0,VALID,100,VALID,-0.0339617,VALID,19.3222,VALID,24,VALID,0.733613,
2006-03-29, 01:13:00,VALID,918.151,VALID,0,VALID,100,VALID,-0.0339617,VALID,20.8372,VALID,23,VALID,0.662609,
2006-03-29, 01:14:00,VALID,918.149,VALID,0,VALID,100,VALID,-0.0169808,VALID,18.9702,VALID,23,VALID,0.472561,
2006-03-29, 01:15:00,VALID,918.156,VALID,0,VALID,100,VALID,-0.101885,VALID,19.2752,VALID,22,VALID,0.350109,
2006-03-29, 01:16:00,VALID,918.153,VALID,0,VALID,100,VALID,0,VALID,18.3937,VALID,22,VALID,0.297256,
2006-03-29, 01:17:00,VALID,918.135,VALID,0,VALID,100,VALID,-0.0339617,VALID,19.7282,VALID,22,VALID,0.49375,
2006-03-29, 01:18:00,VALID,918.133,VALID,0,VALID,100,VALID,-0.118866,VALID,20.2219,VALID,22,VALID,0.217383,
2006-03-29, 01:19:00,VALID,918.124,VALID,0,VALID,100,VALID,-0.135847,VALID,19.3965,VALID,21,VALID,0.240385,
2006-03-29, 01:20:00,VALID,918.114,VALID,0,VALID,100,VALID,-0.0169808,VALID,19.3,VALID,14,VALID,0.238009,
2006-03-29, 01:21:00,VALID,918.104,VALID,0,VALID,100,VALID,-0.0339617,VALID,19.5557,VALID,14,VALID,0.0413707,
2006-03-29, 01:22:00,VALID,918.079,VALID,0,VALID,100,VALID,0,VALID,20.9272,VALID,14,VALID,0.00334821,
2006-03-29, 01:23:00,VALID,918.064,VALID,0,VALID,100,VALID,0,VALID,18.5751,VALID,14,VALID,0,
2006-03-29, 01:24:00,VALID,918.041,VALID,0,VALID,100,VALID,-0.0509425,VALID,20.0333,VALID,14,VALID,0,
2006-03-29, 01:25:00,VALID,918.044,VALID,0,VALID,100,VALID,-0.101885,VALID,18.8101,VALID,14,VALID,0,
2006-03-29, 01:26:00,VALID,918.047,VALID,0,VALID,100,VALID,-0.0509425,VALID,18.8862,VALID,14,VALID,0,
2006-03-29, 01:27:00,VALID,918.067,VALID,0,VALID,100,VALID,-0.135847,VALID,19.9691,VALID,14,VALID,0,
2006-03-29, 01:28:00,VALID,918.07,VALID,0,VALID,100,VALID,-0.101885,VALID,19.5222,VALID,14,VALID,0,
2006-03-29, 01:29:00,VALID,918.065,VALID,0,VALID,100,VALID,-0.101885,VALID,19.0713,VALID,14,VALID,0.0150923,
2006-03-29, 01:30:00,VALID,918.04,VALID,0,VALID,100,VALID,-0.0169808,VALID,19.0854,VALID,14,VALID,0.41915,
2006-03-29, 01:31:00,VALID,918.031,VALID,0,VALID,100,VALID,-0.118866,VALID,20.4026,VALID,14,VALID,0.269627,
2006-03-29, 01:32:00,VALID,918.021,VALID,0,VALID,100,VALID,-0.0849042,VALID,19.5484,VALID,14,VALID,0.508429,
2006-03-29, 01:33:00,VALID,918.007,VALID,0,VALID,100,VALID,0,VALID,20.652,VALID,14,VALID,0.468378,
2006-03-29, 01:34:00,VALID,918.004,VALID,0,VALID,100,VALID,-0.0169808,VALID,20.4369,VALID,14,VALID,0.441934,
2006-03-29, 01:35:00,VALID,918.007,VALID,0,VALID,100,VALID,0.0169808,VALID,18.7577,VALID,14,VALID,0.512195,
2006-03-29, 01:36:00,VALID,917.989,VALID,0,VALID,100,VALID,0,VALID,19.1324,VALID,14,VALID,0.724609,
2006-03-29, 01:37:00,VALID,917.959,VALID,0,VALID,100,VALID,-0.0169808,VALID,19.3151,VALID,14,VALID,0.890443,
2006-03-29, 01:38:00,VALID,917.939,VALID,0,VALID,100,VALID,-0.118866,VALID,19.2371,VALID,14,VALID,0.982279,
2006-03-29, 01:39:00,VALID,917.917,VALID,0,VALID,100,VALID,-0.101885,VALID,19.4665,VALID,2,VALID,0.836509,
2006-03-29, 01:40:00,VALID,917.896,VALID,0,VALID,100,VALID,-0.0849042,VALID,20.5116,VALID,11,VALID,1.12908,
2006-03-29, 01:41:00,VALID,917.89,VALID,0,VALID,100,VALID,-0.0169808,VALID,19.2756,VALID,8,VALID,0.843568,
2006-03-29, 01:42:00,VALID,917.877,VALID,0,VALID,100,VALID,-0.0169808,VALID,19.6483,VALID,359,VALID,0.551711,
2006-03-29, 01:43:00,VALID,917.875,VALID,0,VALID,100,VALID,-0.101885,VALID,20.2349,VALID,345,VALID,0.661399,
2006-03-29, 01:44:00,VALID,917.829,VALID,0,VALID,100,VALID,-0.101885,VALID,18.6099,VALID,344,VALID,0.720656,
2006-03-29, 01:45:00,VALID,917.814,VALID,0,VALID,100,VALID,-0.101885,VALID,19.901,VALID,349,VALID,0.421664,
2006-03-29, 01:46:00,VALID,917.782,VALID,0,VALID,100,VALID,-0.101885,VALID,19.39,VALID,351,VALID,0.00817587,
2006-03-29, 01:47:00,VALID,917.766,VALID,0,VALID,100,VALID,-0.0339617,VALID,19.7546,VALID,351,VALID,0.0221946,
2006-03-29, 01:48:00,VALID,917.765,VALID,0,VALID,100,VALID,-0.118866,VALID,19.7292,VALID,351,VALID,0.0744048,
2006-03-29, 01:49:00,VALID,917.776,VALID,0,VALID,100,VALID,-0.0849042,VALID,18.9908,VALID,350,VALID,0.332919,
2006-03-29, 01:50:00,VALID,917.778,VALID,0,VALID,100,VALID,0,VALID,19.3226,VALID,349,VALID,0.481027,
2006-03-29, 01:51:00,VALID,917.787,VALID,0,VALID,100,VALID,-0.0169808,VALID,19.8904,VALID,344,VALID,0.62691,
2006-03-29, 01:52:00,VALID,917.787,VALID,0,VALID,100,VALID,0,VALID,18.7464,VALID,335,VALID,0.322656,
2006-03-29, 01:53:00,VALID,917.766,VALID,0,VALID,100,VALID,0,VALID,18.9402,VALID,335,VALID,0.280297,
2006-03-29, 01:54:00,VALID,917.745,VALID,0,VALID,100,VALID,-0.0169808,VALID,19.2791,VALID,334,VALID,0.192645,
2006-03-29, 01:55:00,VALID,917.736,VALID,0,VALID,100,VALID,-0.0849042,VALID,18.5782,VALID,331,VALID,0.479288,
2006-03-29, 01:56:00,VALID,917.729,VALID,0,VALID,100,VALID,-0.0849042,VALID,19.7479,VALID,334,VALID,0.397711,
2006-03-29, 01:57:00,VALID,917.735,VALID,0,VALID,100,VALID,-0.0849042,VALID,20.368,VALID,329,VALID,0.810454,
2006-03-29, 01:58:00,VALID,917.73,VALID,0,VALID,100,VALID,-0.0849042,VALID,19.6063,VALID,317,VALID,0.530729,
2006-03-29, 01:59:00,VALID,917.704,VALID,0,VALID,100,VALID,0.0169808,VALID,19.5281,VALID,307,VALID,0.725291,
2006-03-29, 02:00:00,VALID,917.688,VALID,0,VALID,100,VALID,-0.0849042,VALID,19.3668,VALID,328,VALID,0.38941,
2006-03-29, 02:01:00,VALID,917.659,VALID,0,VALID,100,VALID,-0.118866,VALID,20.1432,VALID,350,VALID,0.271763,
2006-03-29, 02:02:00,VALID,917.654,VALID,0,VALID,100,VALID,-0.101885,VALID,19.8611,VALID,351,VALID,0.341797,
2006-03-29, 02:03:00,VALID,917.641,VALID,0,VALID,100,VALID,-0.101885,VALID,20.3269,VALID,319,VALID,0.730556,
2006-03-29, 02:04:00,VALID,917.648,VALID,0,VALID,100,VALID,-0.101885,VALID,20.0549,VALID,315,VALID,0.406808,
2006-03-29, 02:05:00,VALID,917.637,VALID,0,VALID,100,VALID,-0.101885,VALID,18.587,VALID,315,VALID,0.299293,
2006-03-29, 02:06:00,VALID,917.617,VALID,0,VALID,100,VALID,-0.101885,VALID,19.6072,VALID,315,VALID,0.231179,
2006-03-29, 02:07:00,VALID,917.589,VALID,0,VALID,100,VALID,-0.0509425,VALID,18.094,VALID,315,VALID,0.120028,
2006-03-29, 02:08:00,VALID,917.57,VALID,0,VALID,100,VALID,0,VALID,19.5113,VALID,319,VALID,0.487749,
2006-03-29, 02:09:00,VALID,917.549,VALID,0,VALID,100,VALID,-0.0169808,VALID,19.924,VALID,292,VALID,0.613735,
2006-03-29, 02:10:00,VALID,917.524,VALID,0,VALID,100,VALID,-0.0509425,VALID,19.0581,VALID,294,VALID,0.324023,
2006-03-29, 02:11:00,VALID,917.504,VALID,0,VALID,100,VALID,-0.118866,VALID,18.5033,VALID,301,VALID,0.129573,
2006-03-29, 02:12:00,VALID,917.484,VALID,0,VALID,100,VALID,-0.135847,VALID,19.0387,VALID,304,VALID,0.190044,
2006-03-29, 02:13:00,VALID,917.481,VALID,0,VALID,100,VALID,-0.101885,VALID,18.7433,VALID,304,VALID,0.430753,
2006-03-29, 02:14:00,VALID,917.461,VALID,0,VALID,100,VALID,-0.0849042,VALID,19.0545,VALID,285,VALID,0.391135,
2006-03-29, 02:15:00,VALID,917.441,VALID,0,VALID,100,VALID,-0.101885,VALID,18.3201,VALID,286,VALID,0.354297,
2006-03-29, 02:16:00,VALID,917.429,VALID,0,VALID,100,VALID,-0.101885,VALID,19.6953,VALID,287,VALID,0.0724927,
2006-03-29, 02:17:00,VALID,917.425,VALID,0,VALID,100,VALID,-0.118866,VALID,19.5738,VALID,287,VALID,0.0481468,
2006-03-29, 02:18:00,VALID,917.418,VALID,0,VALID,100,VALID,-0.101885,VALID,19.0347,VALID,287,VALID,0.304688,
2006-03-29, 02:19:00,VALID,917.418,VALID,0,VALID,100,VALID,-0.101885,VALID,19.3174,VALID,287,VALID,0.306641,
2006-03-29, 02:20:00,VALID,917.4,VALID,0,VALID,100,VALID,-0.101885,VALID,19.3076,VALID,293,VALID,0.147866,
2006-03-29, 02:21:00,VALID,917.406,VALID,0,VALID,100,VALID,-0.101885,VALID,20.2599,VALID,304,VALID,0.154652,
2006-03-29, 02:22:00,VALID,917.412,VALID,0,VALID,100,VALID,-0.101885,VALID,18.978,VALID,304,VALID,0.146391,
2006-03-29, 02:23:00,VALID,917.402,VALID,0,VALID,100,VALID,-0.101885,VALID,21.035,VALID,304,VALID,0.208394,
2006-03-29, 02:24:00,VALID,917.395,VALID,0,VALID,100,VALID,-0.0679233,VALID,20.1444,VALID,304,VALID,0.1875,
2006-03-29, 02:25:00,VALID,917.417,VALID,0,VALID,100,VALID,-0.101885,VALID,18.416,VALID,304,VALID,0.247049,
2006-03-29, 02:26:00,VALID,917.41,VALID,0,VALID,100,VALID,-0.0509425,VALID,19.2054,VALID,304,VALID,0.328526,
2006-03-29, 02:27:00,VALID,917.398,VALID,0,VALID,100,VALID,-0.135847,VALID,19.6489,VALID,304,VALID,0.221058,
2006-03-29, 02:28:00,VALID,917.389,VALID,0,VALID,100,VALID,-0.135847,VALID,20.3849,VALID,304,VALID,0,
2006-03-29, 02:29:00,VALID,917.395,VALID,0,VALID,100,VALID,-0.118866,VALID,19.1117,VALID,304,VALID,0.0545099,
2006-03-29, 02:30:00,VALID,917.394,VALID,0,VALID,100,VALID,-0.0169808,VALID,18.9547,VALID,304,VALID,0.0152344,
2006-03-29, 02:31:00,VALID,917.388,VALID,0,VALID,100,VALID,-0.0169808,VALID,19.3231,VALID,304,VALID,0.0951705,
2006-03-29, 02:32:00,VALID,917.385,VALID,0,VALID,100,VALID,-0.0169808,VALID,18.0813,VALID,304,VALID,0.015253,
2006-03-29, 02:33:00,VALID,917.385,VALID,0,VALID,100,VALID,-0.0339617,VALID,20.0994,VALID,304,VALID,0,
2006-03-29, 02:34:00,VALID,917.384,VALID,0,VALID,100,VALID,0,VALID,20.8815,VALID,304,VALID,0,
2006-03-29, 02:35:00,VALID,917.381,VALID,0,VALID,100,VALID,0,VALID,19.3666,VALID,304,VALID,0,
2006-03-29, 02:36:00,VALID,917.364,VALID,0,VALID,100,VALID,0,VALID,19.459,VALID,304,VALID,0.0226753,
2006-03-29, 02:37:00,VALID,917.345,VALID,0,VALID,100,VALID,-0.0339617,VALID,19.0169,VALID,304,VALID,0.152166,
2006-03-29, 02:38:00,VALID,917.354,VALID,0,VALID,100,VALID,-0.118866,VALID,19.6374,VALID,304,VALID,0.109747,
2006-03-29, 02:39:00,VALID,917.34,VALID,0,VALID,100,VALID,-0.118866,VALID,19.7781,VALID,304,VALID,0,
2006-03-29, 02:40:00,VALID,917.345,VALID,0,VALID,100,VALID,-0.118866,VALID,19.8271,VALID,304,VALID,0,
2006-03-29, 02:41:00,VALID,917.338,VALID,0,VALID,100,VALID,-0.0849042,VALID,19.7548,VALID,304,VALID,0,
2006-03-29, 02:42:00,VALID,917.358,VALID,0,VALID,100,VALID,-0.0169808,VALID,18.6701,VALID,304,VALID,0.0637429,
2006-03-29, 02:43:00,VALID,917.346,VALID,0,VALID,100,VALID,-0.0169808,VALID,18.2269,VALID,304,VALID,0,
2006-03-29, 02:44:00,VALID,917.352,VALID,0,VALID,100,VALID,0,VALID,18.8777,VALID,304,VALID,0,
2006-03-29, 02:45:00,VALID,917.354,VALID,0,VALID,100,VALID,0,VALID,18.7024,VALID,304,VALID,0,
2006-03-29, 02:46:00,VALID,917.341,VALID,0,VALID,100,VALID,-0.0339617,VALID,19.7692,VALID,304,VALID,0,
2006-03-29, 02:47:00,VALID,917.328,VALID,0,VALID,100,VALID,-0.101885,VALID,18.7821,VALID,304,VALID,0,
2006-03-29, 02:48:00,VALID,917.313,VALID,0,VALID,100,VALID,-0.118866,VALID,18.9031,VALID,304,VALID,0,
2006-03-29, 02:49:00,VALID,917.32,VALID,0,VALID,100,VALID,-0.118866,VALID,20.1869,VALID,304,VALID,0,
2006-03-29, 02:50:00,VALID,917.321,VALID,0,VALID,100,VALID,-0.0169808,VALID,19.0977,VALID,304,VALID,0.159624,
2006-03-29, 02:51:00,VALID,917.317,VALID,0,VALID,100,VALID,-0.118866,VALID,18.6577,VALID,304,VALID,0.306996,
2006-03-29, 02:52:00,VALID,917.321,VALID,0,VALID,100,VALID,-0.101885,VALID,18.5767,VALID,304,VALID,0.376674,
2006-03-29, 02:53:00,VALID,917.311,VALID,0,VALID,100,VALID,-0.101885,VALID,19.4555,VALID,304,VALID,0.332775,
2006-03-29, 02:54:00,VALID,917.304,VALID,0,VALID,100,VALID,-0.0509425,VALID,18.821,VALID,327,VALID,0.528343,
2006-03-29, 02:55:00,VALID,917.297,VALID,0,VALID,100,VALID,-0.0339617,VALID,19.2296,VALID,8,VALID,0.635789,
2006-03-29, 02:56:00,VALID,917.31,VALID,0,VALID,100,VALID,0,VALID,18.9984,VALID,12,VALID,0.677827,
2006-03-29, 02:57:00,VALID,917.293,VALID,0,VALID,100,VALID,0,VALID,19.7871,VALID,12,VALID,0.61859,
2006-03-29, 02:58:00,VALID,917.286,VALID,0,VALID,100,VALID,0,VALID,19.0939,VALID,12,VALID,0.701672,
2006-03-29, 02:59:00,VALID,917.288,VALID,0,VALID,100,VALID,-0.0169808,VALID,19.3442,VALID,12,VALID,0.847049,
2006-03-29, 03:00:00,VALID,917.284,VALID,0,VALID,100,VALID,0,VALID,19.2415,VALID,19,VALID,0.931055,
2006-03-29, 03:01:01,VALID,917.291,VALID,0,VALID,100,VALID,-0.101885,VALID,18.633,VALID,22,VALID,0.956555,
2006-03-29, 03:02:01,VALID,917.298,VALID,0,VALID,100,VALID,-0.0679233,VALID,18.8682,VALID,23,VALID,0.872142,
2006-03-29, 03:03:01,VALID,917.304,VALID,0,VALID,100,VALID,0,VALID,19.4416,VALID,1,VALID,0.591319,
2006-03-29, 03:04:01,VALID,917.298,VALID,0,VALID,100,VALID,-0.0339617,VALID,19.1417,VALID,2,VALID,0.748785,
2006-03-29, 03:05:00,VALID,917.276,VALID,0,VALID,100,VALID,-0.0509425,VALID,18.4159,VALID,2,VALID,0.76762,
2006-03-29, 03:06:00,VALID,917.289,VALID,0,VALID,100,VALID,-0.118866,VALID,18.9352,VALID,10,VALID,0.948342,
2006-03-29, 03:07:00,VALID,917.27,VALID,0,VALID,100,VALID,-0.118866,VALID,18.4748,VALID,8,VALID,1.04669,
2006-03-29, 03:08:01,VALID,917.266,VALID,0,VALID,100,VALID,-0.0339617,VALID,18.2986,VALID,8,VALID,0.913881,
2006-03-29, 03:09:01,VALID,917.259,VALID,0,VALID,100,VALID,-0.0849042,VALID,19.0444,VALID,9,VALID,0.878472,
2006-03-29, 03:10:00,VALID,917.237,VALID,0,VALID,100,VALID,-0.0339617,VALID,18.7174,VALID,12,VALID,0.86899,
2006-03-29, 03:11:01,VALID,917.23,VALID,0,VALID,100,VALID,-0.0339617,VALID,19.211,VALID,12,VALID,0.943614,
2006-03-29, 03:12:00,VALID,917.203,VALID,0,VALID,100,VALID,-0.0339617,VALID,19.5479,VALID,9,VALID,1.0615,
2006-03-29, 03:13:01,VALID,917.182,VALID,0,VALID,100,VALID,-0.0509425,VALID,18.9497,VALID,11,VALID,1.27899,
2006-03-29, 03:14:00,VALID,917.165,VALID,0,VALID,100,VALID,-0.0849042,VALID,18.6955,VALID,19,VALID,1.27504,
2006-03-29, 03:15:00,VALID,917.163,VALID,0,VALID,100,VALID,-0.0339617,VALID,18.1998,VALID,20,VALID,1.22676,
2006-03-29, 03:16:00,VALID,917.196,VALID,0,VALID,100,VALID,-0.0679233,VALID,18.8236,VALID,6,VALID,1.12686,
2006-03-29, 03:17:00,VALID,917.208,VALID,0,VALID,100,VALID,-0.0679233,VALID,20.2039,VALID,6,VALID,0.943314,
2006-03-29, 03:18:00,VALID,917.23,VALID,0,VALID,100,VALID,-0.0509425,VALID,18.5981,VALID,8,VALID,0.908975,
2006-03-29, 03:19:00,VALID,917.233,VALID,0,VALID,100,VALID,-0.0679233,VALID,18.9299,VALID,5,VALID,0.955602,
2006-03-29, 03:20:01,VALID,917.224,VALID,0,VALID,100,VALID,-0.0849042,VALID,19.7249,VALID,11,VALID,0.940044,
2006-03-29, 03:21:00,VALID,917.199,VALID,0,VALID,100,VALID,-0.0679233,VALID,18.7198,VALID,5,VALID,1.00153,
2006-03-29, 03:22:00,VALID,917.172,VALID,0,VALID,100,VALID,-0.0849042,VALID,18.1844,VALID,6,VALID,0.886628,
2006-03-29, 03:23:00,VALID,917.152,VALID,0,VALID,100,VALID,-0.0679233,VALID,18.1105,VALID,15,VALID,0.835565,
2006-03-29, 03:24:00,VALID,917.145,VALID,0,VALID,100,VALID,-0.0849042,VALID,16.971,VALID,3,VALID,0.648074,
2006-03-29, 03:25:01,VALID,917.123,VALID,0,VALID,100,VALID,-0.0509425,VALID,18.5214,VALID,9,VALID,0.655692,
2006-03-29, 03:26:00,VALID,917.104,VALID,0,VALID,100,VALID,-0.0169808,VALID,18.3681,VALID,9,VALID,0.308321,
2006-03-29, 03:27:01,VALID,917.09,VALID,0,VALID,100,VALID,-0.0169808,VALID,18.3577,VALID,9,VALID,0.062872,
2006-03-29, 03:28:00,VALID,917.093,VALID,0,VALID,100,VALID,-0.0339617,VALID,19.9809,VALID,7,VALID,0.189174,
2006-03-29, 03:29:00,VALID,917.089,VALID,0,VALID,100,VALID,-0.0339617,VALID,17.7229,VALID,4,VALID,0.00297619,
2006-03-29, 03:30:00,VALID,917.094,VALID,0,VALID,100,VALID,-0.0339617,VALID,18.5798,VALID,4,VALID,0.00446429,
2006-03-29, 03:31:00,VALID,917.099,VALID,0,VALID,100,VALID,-0.0169808,VALID,18.2317,VALID,4,VALID,0,
2006-03-29, 03:32:01,VALID,917.095,VALID,0,VALID,100,VALID,-0.0339617,VALID,18.7786,VALID,4,VALID,0.060404,
2006-03-29, 03:33:00,VALID,917.072,VALID,0,VALID,100,VALID,-0.0339617,VALID,19.818,VALID,4,VALID,0.0138889,
2006-03-29, 03:34:00,VALID,917.087,VALID,0,VALID,100,VALID,-0.0849042,VALID,17.4043,VALID,4,VALID,0.00520833,
2006-03-29, 03:35:01,VALID,917.093,VALID,0,VALID,100,VALID,-0.0339617,VALID,18.4062,VALID,4,VALID,0,
2006-03-29, 03:36:01,VALID,917.111,VALID,0,VALID,100,VALID,-0.0679233,VALID,18.7751,VALID,4,VALID,0,
2006-03-29, 03:37:00,VALID,917.131,VALID,0,VALID,100,VALID,-0.0849042,VALID,18.6442,VALID,4,VALID,0.0988948,
2006-03-29, 03:38:01,VALID,917.154,VALID,0,VALID,100,VALID,-0.152827,VALID,19.3762,VALID,4,VALID,0.200763,
2006-03-29, 03:39:01,VALID,917.179,VALID,0,VALID,100,VALID,-0.101885,VALID,18.1376,VALID,4,VALID,0.0859375,
2006-03-29, 03:40:00,VALID,917.19,VALID,0,VALID,99.9952,VALID,-0.0679233,VALID,19.7291,VALID,4,VALID,0.0738281,
2006-03-29, 03:41:01,VALID,917.182,VALID,0,VALID,99.8375,VALID,-0.0509425,VALID,19.0534,VALID,4,VALID,0,
2006-03-29, 03:42:01,VALID,917.156,VALID,0,VALID,99.6493,VALID,-0.0849042,VALID,18.9608,VALID,4,VALID,0,
2006-03-29, 03:43:00,VALID,917.135,VALID,0,VALID,99.6061,VALID,0,VALID,18.0264,VALID,4,VALID,0,
2006-03-29, 03:44:00,VALID,917.132,VALID,0,VALID,99.6556,VALID,-0.0169808,VALID,19.1323,VALID,4,VALID,0.0973837,
2006-03-29, 03:45:00,VALID,917.129,VALID,0,VALID,99.8057,VALID,-0.0169808,VALID,18.421,VALID,4,VALID,0.314098,